Year,Month,Day,Hour,Minute,Value (Times are PST for temperature in C)
2024,03,30,00,00,6.60
2024,03,30,00,01,6.60
2024,03,30,00,02,6.50
2024,03,30,00,03,6.50
2024,03,30,00,04,6.50
2024,03,30,00,05,6.50
2024,03,30,00,06,6.40
2024,03,30,00,07,6.40
2024,03,30,00,08,6.40
2024,03,30,00,09,6.30
2024,03,30,00,10,6.30
2024,03,30,00,11,6.30
2024,03,30,00,12,6.30
2024,03,30,00,13,6.20
2024,03,30,00,14,6.20
2024,03,30,00,15,6.10
2024,03,30,00,16,6.10
2024,03,30,00,17,6.10
2024,03,30,00,18,6.10
2024,03,30,00,19,6.00
2024,03,30,00,20,6.00
2024,03,30,00,21,5.90
2024,03,30,00,22,5.90
2024,03,30,00,23,5.90
2024,03,30,00,24,5.90
2024,03,30,00,25,5.80
2024,03,30,00,26,5.80
2024,03,30,00,27,5.80
2024,03,30,00,28,5.80
2024,03,30,00,29,5.70
2024,03,30,00,30,5.70
2024,03,30,00,31,5.70
2024,03,30,00,32,5.70
2024,03,30,00,33,5.70
2024,03,30,00,34,5.60
2024,03,30,00,35,5.60
2024,03,30,00,36,5.60
2024,03,30,00,37,5.60
2024,03,30,00,38,5.60
2024,03,30,00,39,5.60
2024,03,30,00,40,5.60
2024,03,30,00,41,5.60
2024,03,30,00,42,5.50
2024,03,30,00,43,5.50
2024,03,30,00,44,5.50
2024,03,30,00,45,5.50
2024,03,30,00,46,5.40
2024,03,30,00,47,5.40
2024,03,30,00,48,5.40
2024,03,30,00,49,5.40
2024,03,30,00,50,5.40
2024,03,30,00,51,5.40
2024,03,30,00,52,5.30
2024,03,30,00,53,5.30
2024,03,30,00,54,5.30
2024,03,30,00,55,5.30
2024,03,30,00,56,5.20
2024,03,30,00,57,5.20
2024,03,30,00,58,5.20
2024,03,30,00,59,5.20
2024,03,30,01,00,5.10
2024,03,30,01,01,5.10
2024,03,30,01,02,5.10
2024,03,30,01,03,5.10
2024,03,30,01,04,5.00
2024,03,30,01,05,5.00
2024,03,30,01,06,5.00
2024,03,30,01,07,5.00
2024,03,30,01,08,5.00
2024,03,30,01,09,5.00
2024,03,30,01,10,5.00
2024,03,30,01,11,5.00
2024,03,30,01,12,5.00
2024,03,30,01,13,5.00
2024,03,30,01,14,5.10
2024,03,30,01,15,5.10
2024,03,30,01,16,5.10
2024,03,30,01,17,5.10
2024,03,30,01,18,5.10
2024,03,30,01,19,5.10
2024,03,30,01,20,5.10
2024,03,30,01,21,5.10
2024,03,30,01,22,5.10
2024,03,30,01,23,5.10
2024,03,30,01,24,5.10
2024,03,30,01,25,5.20
2024,03,30,01,26,5.20
2024,03,30,01,27,5.20
2024,03,30,01,28,5.20
2024,03,30,01,29,5.20
2024,03,30,01,30,5.20
2024,03,30,01,31,5.10
2024,03,30,01,32,5.10
2024,03,30,01,33,5.10
2024,03,30,01,34,5.10
2024,03,30,01,35,5.10
2024,03,30,01,36,5.10
2024,03,30,01,37,5.10
2024,03,30,01,38,5.10
2024,03,30,01,39,5.10
2024,03,30,01,40,5.10
2024,03,30,01,41,5.10
2024,03,30,01,42,5.00
2024,03,30,01,43,5.00
2024,03,30,01,44,5.00
2024,03,30,01,45,4.90
2024,03,30,01,46,4.90
2024,03,30,01,47,4.90
2024,03,30,01,48,4.90
2024,03,30,01,49,4.90
2024,03,30,01,50,4.90
2024,03,30,01,51,4.90
2024,03,30,01,52,4.80
2024,03,30,01,53,4.80
2024,03,30,01,54,4.80
2024,03,30,01,55,4.80
2024,03,30,01,56,4.70
2024,03,30,01,57,4.70
2024,03,30,01,58,4.70
2024,03,30,01,59,4.70
2024,03,30,02,00,4.60
2024,03,30,02,01,4.60
2024,03,30,02,02,4.60
2024,03,30,02,03,4.60
2024,03,30,02,04,4.60
2024,03,30,02,05,4.60
2024,03,30,02,06,4.60
2024,03,30,02,07,4.60
2024,03,30,02,08,4.60
2024,03,30,02,09,4.60
2024,03,30,02,10,4.60
2024,03,30,02,11,4.60
2024,03,30,02,12,4.60
2024,03,30,02,13,4.60
2024,03,30,02,14,4.60
2024,03,30,02,15,4.60
2024,03,30,02,16,4.60
2024,03,30,02,17,4.60
2024,03,30,02,18,4.60
2024,03,30,02,19,4.60
2024,03,30,02,20,4.60
2024,03,30,02,21,4.60
2024,03,30,02,22,4.60
2024,03,30,02,23,4.60
2024,03,30,02,24,4.60
2024,03,30,02,25,4.60
2024,03,30,02,26,4.60
2024,03,30,02,27,4.60
2024,03,30,02,28,4.50
2024,03,30,02,29,4.50
2024,03,30,02,30,4.50
2024,03,30,02,31,4.50
2024,03,30,02,32,4.50
2024,03,30,02,33,4.50
2024,03,30,02,34,4.50
2024,03,30,02,35,4.40
2024,03,30,02,36,4.40
2024,03,30,02,37,4.50
2024,03,30,02,38,4.40
2024,03,30,02,39,4.50
2024,03,30,02,40,4.40
2024,03,30,02,41,4.40
2024,03,30,02,42,4.40
2024,03,30,02,43,4.40
2024,03,30,02,44,4.40
2024,03,30,02,45,4.40
2024,03,30,02,46,4.40
2024,03,30,02,47,4.40
2024,03,30,02,48,4.40
2024,03,30,02,49,4.30
2024,03,30,02,50,4.30
2024,03,30,02,51,4.30
2024,03,30,02,52,4.30
2024,03,30,02,53,4.30
2024,03,30,02,54,4.20
2024,03,30,02,55,4.20
2024,03,30,02,56,4.20
2024,03,30,02,57,4.20
2024,03,30,02,58,4.20
2024,03,30,02,59,4.10
2024,03,30,03,00,4.10
2024,03,30,03,01,4.10
2024,03,30,03,02,4.10
2024,03,30,03,03,4.10
2024,03,30,03,04,4.10
2024,03,30,03,05,4.10
2024,03,30,03,06,4.10
2024,03,30,03,07,4.10
2024,03,30,03,08,4.10
2024,03,30,03,09,4.10
2024,03,30,03,10,4.10
2024,03,30,03,11,4.10
2024,03,30,03,12,4.10
2024,03,30,03,13,4.10
2024,03,30,03,14,4.10
2024,03,30,03,15,4.10
2024,03,30,03,16,4.10
2024,03,30,03,17,4.10
2024,03,30,03,18,4.10
2024,03,30,03,19,4.10
2024,03,30,03,20,4.10
2024,03,30,03,21,4.10
2024,03,30,03,22,4.00
2024,03,30,03,23,4.00
2024,03,30,03,24,4.00
2024,03,30,03,25,4.00
2024,03,30,03,26,3.90
2024,03,30,03,27,3.90
2024,03,30,03,28,3.90
2024,03,30,03,29,3.90
2024,03,30,03,30,3.80
2024,03,30,03,31,3.80
2024,03,30,03,32,3.80
2024,03,30,03,33,3.80
2024,03,30,03,34,3.80
2024,03,30,03,35,3.80
2024,03,30,03,36,3.80
2024,03,30,03,37,3.80
2024,03,30,03,38,3.80
2024,03,30,03,39,3.80
2024,03,30,03,40,3.80
2024,03,30,03,41,3.80
2024,03,30,03,42,3.80
2024,03,30,03,43,3.90
2024,03,30,03,44,3.80
2024,03,30,03,45,3.80
2024,03,30,03,46,3.80
2024,03,30,03,47,3.80
2024,03,30,03,48,3.80
2024,03,30,03,49,3.80
2024,03,30,03,50,3.80
2024,03,30,03,51,3.80
2024,03,30,03,52,3.80
2024,03,30,03,53,3.80
2024,03,30,03,54,3.80
2024,03,30,03,55,3.80
2024,03,30,03,56,3.80
2024,03,30,03,57,3.80
2024,03,30,03,58,3.80
2024,03,30,03,59,3.80
2024,03,30,04,00,3.90
2024,03,30,04,01,3.90
2024,03,30,04,02,3.90
2024,03,30,04,03,3.90
2024,03,30,04,04,3.90
2024,03,30,04,05,3.90
2024,03,30,04,06,3.90
2024,03,30,04,07,3.90
2024,03,30,04,08,3.90
2024,03,30,04,09,3.90
2024,03,30,04,10,3.90
2024,03,30,04,11,3.80
2024,03,30,04,12,3.80
2024,03,30,04,13,3.80
2024,03,30,04,14,3.80
2024,03,30,04,15,3.80
2024,03,30,04,16,3.80
2024,03,30,04,17,3.80
2024,03,30,04,18,3.80
2024,03,30,04,19,3.80
2024,03,30,04,20,3.80
2024,03,30,04,21,3.80
2024,03,30,04,22,3.80
2024,03,30,04,23,3.80
2024,03,30,04,24,3.80
2024,03,30,04,25,3.80
2024,03,30,04,26,3.80
2024,03,30,04,27,3.80
2024,03,30,04,28,3.80
2024,03,30,04,29,3.80
2024,03,30,04,30,3.70
2024,03,30,04,31,3.70
2024,03,30,04,32,3.70
2024,03,30,04,33,3.70
2024,03,30,04,34,3.60
2024,03,30,04,35,3.60
2024,03,30,04,36,3.60
2024,03,30,04,37,3.60
2024,03,30,04,38,3.60
2024,03,30,04,39,3.70
2024,03,30,04,40,3.70
2024,03,30,04,41,3.70
2024,03,30,04,42,3.80
2024,03,30,04,43,3.80
2024,03,30,04,44,3.90
2024,03,30,04,45,3.90
2024,03,30,04,46,4.00
2024,03,30,04,47,4.00
2024,03,30,04,48,4.00
2024,03,30,04,49,4.10
2024,03,30,04,50,4.10
2024,03,30,04,51,4.10
2024,03,30,04,52,4.10
2024,03,30,04,53,4.10
2024,03,30,04,54,4.10
2024,03,30,04,55,4.10
2024,03,30,04,56,4.10
2024,03,30,04,57,4.10
2024,03,30,04,58,4.00
2024,03,30,04,59,4.00
2024,03,30,05,00,4.00
2024,03,30,05,01,4.00
2024,03,30,05,02,4.00
2024,03,30,05,03,4.00
2024,03,30,05,04,4.00
2024,03,30,05,05,4.00
2024,03,30,05,06,4.00
2024,03,30,05,07,4.00
2024,03,30,05,08,4.10
2024,03,30,05,09,4.10
2024,03,30,05,10,4.10
2024,03,30,05,11,4.10
2024,03,30,05,12,4.10
2024,03,30,05,13,4.20
2024,03,30,05,14,4.20
2024,03,30,05,15,4.20
2024,03,30,05,16,4.20
2024,03,30,05,17,4.20
2024,03,30,05,18,4.20
2024,03,30,05,19,4.20
2024,03,30,05,20,4.20
2024,03,30,05,21,4.10
2024,03,30,05,22,4.10
2024,03,30,05,23,4.10
2024,03,30,05,24,4.10
2024,03,30,05,25,4.10
2024,03,30,05,26,4.20
2024,03,30,05,27,4.20
2024,03,30,05,28,4.20
2024,03,30,05,29,4.30
2024,03,30,05,30,4.30
2024,03,30,05,31,4.30
2024,03,30,05,32,4.30
2024,03,30,05,33,4.40
2024,03,30,05,34,4.40
2024,03,30,05,35,4.40
2024,03,30,05,36,4.40
2024,03,30,05,37,4.40
2024,03,30,05,38,4.40
2024,03,30,05,39,4.40
2024,03,30,05,40,4.40
2024,03,30,05,41,4.40
2024,03,30,05,42,4.40
2024,03,30,05,43,4.40
2024,03,30,05,44,4.40
2024,03,30,05,45,4.40
2024,03,30,05,46,4.40
2024,03,30,05,47,4.40
2024,03,30,05,48,4.40
2024,03,30,05,49,4.30
2024,03,30,05,50,4.30
2024,03,30,05,51,4.30
2024,03,30,05,52,4.30
2024,03,30,05,53,4.30
2024,03,30,05,54,4.30
2024,03,30,05,55,4.30
2024,03,30,05,56,4.30
2024,03,30,05,57,4.30
2024,03,30,05,58,4.20
2024,03,30,05,59,4.20
2024,03,30,06,00,4.20
2024,03,30,06,01,4.30
2024,03,30,06,02,4.30
2024,03,30,06,03,4.30
2024,03,30,06,04,4.30
2024,03,30,06,05,4.30
2024,03,30,06,06,4.30
2024,03,30,06,07,4.30
2024,03,30,06,08,4.30
2024,03,30,06,09,4.30
2024,03,30,06,10,4.30
2024,03,30,06,11,4.30
2024,03,30,06,12,4.20
2024,03,30,06,13,4.20
2024,03,30,06,14,4.10
2024,03,30,06,15,4.10
2024,03,30,06,16,4.10
2024,03,30,06,17,4.10
2024,03,30,06,18,4.00
2024,03,30,06,19,4.00
2024,03,30,06,20,4.00
2024,03,30,06,21,4.00
2024,03,30,06,22,4.00
2024,03,30,06,23,4.00
2024,03,30,06,24,4.00
2024,03,30,06,25,4.00
2024,03,30,06,26,4.00
2024,03,30,06,27,4.00
2024,03,30,06,28,4.00
2024,03,30,06,29,4.00
2024,03,30,06,30,4.00
2024,03,30,06,31,4.00
2024,03,30,06,32,4.00
2024,03,30,06,33,4.00
2024,03,30,06,34,4.00
2024,03,30,06,35,4.00
2024,03,30,06,36,4.00
2024,03,30,06,37,4.00
2024,03,30,06,38,4.00
2024,03,30,06,39,4.00
2024,03,30,06,40,4.00
2024,03,30,06,41,4.00
2024,03,30,06,42,4.10
2024,03,30,06,43,4.10
2024,03,30,06,44,4.10
2024,03,30,06,45,4.10
2024,03,30,06,46,4.10
2024,03,30,06,47,4.10
2024,03,30,06,48,4.10
2024,03,30,06,49,4.10
2024,03,30,06,50,4.10
2024,03,30,06,51,4.10
2024,03,30,06,52,4.10
2024,03,30,06,53,4.10
2024,03,30,06,54,4.10
2024,03,30,06,55,4.10
2024,03,30,06,56,4.10
2024,03,30,06,57,4.10
2024,03,30,06,58,4.10
2024,03,30,06,59,4.20
2024,03,30,07,00,4.20
2024,03,30,07,01,4.20
2024,03,30,07,02,4.30
2024,03,30,07,03,4.30
2024,03,30,07,04,4.30
2024,03,30,07,05,4.40
2024,03,30,07,06,4.40
2024,03,30,07,07,4.40
2024,03,30,07,08,4.50
2024,03,30,07,09,4.50
2024,03,30,07,10,4.50
2024,03,30,07,11,4.60
2024,03,30,07,12,4.60
2024,03,30,07,13,4.60
2024,03,30,07,14,4.60
2024,03,30,07,15,4.60
2024,03,30,07,16,4.60
2024,03,30,07,17,4.60
2024,03,30,07,18,4.60
2024,03,30,07,19,4.60
2024,03,30,07,20,4.60
2024,03,30,07,21,4.60
2024,03,30,07,22,4.60
2024,03,30,07,23,4.50
2024,03,30,07,24,4.50
2024,03,30,07,25,4.50
2024,03,30,07,26,4.60
2024,03,30,07,27,4.50
2024,03,30,07,28,4.60
2024,03,30,07,29,4.60
2024,03,30,07,30,4.60
2024,03,30,07,31,4.70
2024,03,30,07,32,4.70
2024,03,30,07,33,4.70
2024,03,30,07,34,4.80
2024,03,30,07,35,4.80
2024,03,30,07,36,4.90
2024,03,30,07,37,4.90
2024,03,30,07,38,5.00
2024,03,30,07,39,5.00
2024,03,30,07,40,5.10
2024,03,30,07,41,5.20
2024,03,30,07,42,5.20
2024,03,30,07,43,5.30
2024,03,30,07,44,5.30
2024,03,30,07,45,5.40
2024,03,30,07,46,5.50
2024,03,30,07,47,5.60
2024,03,30,07,48,5.60
2024,03,30,07,49,5.70
2024,03,30,07,50,5.70
2024,03,30,07,51,5.80
2024,03,30,07,52,5.80
2024,03,30,07,53,5.80
2024,03,30,07,54,5.90
2024,03,30,07,55,5.90
2024,03,30,07,56,6.00
2024,03,30,07,57,6.10
2024,03,30,07,58,6.20
2024,03,30,07,59,6.20
2024,03,30,08,00,6.30
2024,03,30,08,01,6.30
2024,03,30,08,02,6.40
2024,03,30,08,03,6.50
2024,03,30,08,04,6.60
2024,03,30,08,05,6.70
2024,03,30,08,06,6.80
2024,03,30,08,07,7.00
2024,03,30,08,08,7.10
2024,03,30,08,09,7.20
2024,03,30,08,10,7.30
2024,03,30,08,11,7.40
2024,03,30,08,12,7.50
2024,03,30,08,13,7.60
2024,03,30,08,14,7.70
2024,03,30,08,15,7.70
2024,03,30,08,16,7.80
2024,03,30,08,17,7.80
2024,03,30,08,18,7.80
2024,03,30,08,19,7.90
2024,03,30,08,20,8.00
2024,03,30,08,21,8.00
2024,03,30,08,22,8.10
2024,03,30,08,23,8.10
2024,03,30,08,24,8.20
2024,03,30,08,25,8.20
2024,03,30,08,26,8.30
2024,03,30,08,27,8.30
2024,03,30,08,28,8.40
2024,03,30,08,29,8.40
2024,03,30,08,30,8.40
2024,03,30,08,31,8.50
2024,03,30,08,32,8.60
2024,03,30,08,33,8.70
2024,03,30,08,34,8.80
2024,03,30,08,35,8.90
2024,03,30,08,36,8.90
2024,03,30,08,37,9.00
2024,03,30,08,38,9.10
2024,03,30,08,39,9.20
2024,03,30,08,40,9.30
2024,03,30,08,41,9.40
2024,03,30,08,42,9.50
2024,03,30,08,43,9.50
2024,03,30,08,44,9.60
2024,03,30,08,45,9.60
2024,03,30,08,46,9.70
2024,03,30,08,47,9.70
2024,03,30,08,48,9.70
2024,03,30,08,49,9.70
2024,03,30,08,50,9.70
2024,03,30,08,51,9.70
2024,03,30,08,52,9.60
2024,03,30,08,53,9.60
2024,03,30,08,54,9.60
2024,03,30,08,55,9.60
2024,03,30,08,56,9.60
2024,03,30,08,57,9.60
2024,03,30,08,58,9.60
2024,03,30,08,59,9.60
2024,03,30,09,00,9.70
2024,03,30,09,01,9.70
2024,03,30,09,02,9.70
2024,03,30,09,03,9.80
2024,03,30,09,04,9.80
2024,03,30,09,05,9.80
2024,03,30,09,06,9.80
2024,03,30,09,07,9.80
2024,03,30,09,08,9.80
2024,03,30,09,09,9.80
2024,03,30,09,10,9.90
2024,03,30,09,11,9.90
2024,03,30,09,12,9.90
2024,03,30,09,13,9.90
2024,03,30,09,14,9.90
2024,03,30,09,15,9.90
2024,03,30,09,16,10.00
2024,03,30,09,17,10.00
2024,03,30,09,18,10.10
2024,03,30,09,19,10.20
2024,03,30,09,20,10.20
2024,03,30,09,21,10.20
2024,03,30,09,22,10.30
2024,03,30,09,23,10.30
2024,03,30,09,24,10.40
2024,03,30,09,25,10.40
2024,03,30,09,26,10.40
2024,03,30,09,27,10.50
2024,03,30,09,28,10.50
2024,03,30,09,29,10.50
2024,03,30,09,30,10.40
2024,03,30,09,31,10.40
2024,03,30,09,32,10.40
2024,03,30,09,33,10.40
2024,03,30,09,34,10.40
2024,03,30,09,35,10.50
2024,03,30,09,36,10.50
2024,03,30,09,37,10.50
2024,03,30,09,38,10.50
2024,03,30,09,39,10.50
2024,03,30,09,40,10.50
2024,03,30,09,41,10.60
2024,03,30,09,42,10.60
2024,03,30,09,43,10.60
2024,03,30,09,44,10.60
2024,03,30,09,45,10.60
2024,03,30,09,46,10.70
2024,03,30,09,47,10.70
2024,03,30,09,48,10.70
2024,03,30,09,49,10.80
2024,03,30,09,50,10.90
2024,03,30,09,51,10.90
2024,03,30,09,52,10.90
2024,03,30,09,53,10.90
2024,03,30,09,54,11.00
2024,03,30,09,55,11.00
2024,03,30,09,56,11.10
2024,03,30,09,57,11.10
2024,03,30,09,58,11.10
2024,03,30,09,59,11.10
2024,03,30,10,00,11.20
2024,03,30,10,01,11.20
2024,03,30,10,02,11.20
2024,03,30,10,03,11.20
2024,03,30,10,04,11.30
2024,03,30,10,05,11.30
2024,03,30,10,06,11.30
2024,03,30,10,07,11.40
2024,03,30,10,08,11.40
2024,03,30,10,09,11.40
2024,03,30,10,10,11.50
2024,03,30,10,11,11.50
2024,03,30,10,12,11.50
2024,03,30,10,13,11.60
2024,03,30,10,14,11.60
2024,03,30,10,15,11.60
2024,03,30,10,16,11.60
2024,03,30,10,17,11.60
2024,03,30,10,18,11.60
2024,03,30,10,19,11.60
2024,03,30,10,20,11.60
2024,03,30,10,21,11.60
2024,03,30,10,22,11.60
2024,03,30,10,23,11.60
2024,03,30,10,24,11.60
2024,03,30,10,25,11.50
2024,03,30,10,26,11.50
2024,03,30,10,27,11.50
2024,03,30,10,28,11.50
2024,03,30,10,29,11.60
2024,03,30,10,30,11.60
2024,03,30,10,31,11.70
2024,03,30,10,32,11.80
2024,03,30,10,33,11.80
2024,03,30,10,34,11.80
2024,03,30,10,35,11.80
2024,03,30,10,36,11.80
2024,03,30,10,37,11.80
2024,03,30,10,38,11.90
2024,03,30,10,39,11.90
2024,03,30,10,40,12.00
2024,03,30,10,41,12.00
2024,03,30,10,42,12.00
2024,03,30,10,43,12.00
2024,03,30,10,44,12.00
2024,03,30,10,45,11.90
2024,03,30,10,46,11.90
2024,03,30,10,47,11.90
2024,03,30,10,48,11.80
2024,03,30,10,49,11.80
2024,03,30,10,50,11.80
2024,03,30,10,51,11.80
2024,03,30,10,52,11.80
2024,03,30,10,53,11.80
2024,03,30,10,54,11.90
2024,03,30,10,55,11.90
2024,03,30,10,56,12.00
2024,03,30,10,57,12.00
2024,03,30,10,58,12.10
2024,03,30,10,59,12.10
2024,03,30,11,00,12.10
2024,03,30,11,01,12.20
2024,03,30,11,02,12.20
2024,03,30,11,03,12.20
2024,03,30,11,04,12.20
2024,03,30,11,05,12.20
2024,03,30,11,06,12.20
2024,03,30,11,07,12.20
2024,03,30,11,08,12.20
2024,03,30,11,09,12.20
2024,03,30,11,10,12.30
2024,03,30,11,11,12.40
2024,03,30,11,12,12.40
2024,03,30,11,13,12.40
2024,03,30,11,14,12.40
2024,03,30,11,15,12.50
2024,03,30,11,16,12.50
2024,03,30,11,17,12.50
2024,03,30,11,18,12.60
2024,03,30,11,19,12.60
2024,03,30,11,20,12.70
2024,03,30,11,21,12.70
2024,03,30,11,22,12.70
2024,03,30,11,23,12.70
2024,03,30,11,24,12.80
2024,03,30,11,25,12.80
2024,03,30,11,26,12.80
2024,03,30,11,27,12.80
2024,03,30,11,28,12.80
2024,03,30,11,29,12.80
2024,03,30,11,30,12.80
2024,03,30,11,31,12.80
2024,03,30,11,32,12.80
2024,03,30,11,33,12.80
2024,03,30,11,34,12.80
2024,03,30,11,35,12.80
2024,03,30,11,36,12.70
2024,03,30,11,37,12.70
2024,03,30,11,38,12.70
2024,03,30,11,39,12.70
2024,03,30,11,40,12.70
2024,03,30,11,41,12.70
2024,03,30,11,42,12.70
2024,03,30,11,43,12.70
2024,03,30,11,44,12.70
2024,03,30,11,45,12.70
2024,03,30,11,46,12.70
2024,03,30,11,47,12.60
2024,03,30,11,48,12.60
2024,03,30,11,49,12.60
2024,03,30,11,50,12.60
2024,03,30,11,51,12.60
2024,03,30,11,52,12.60
2024,03,30,11,53,12.60
2024,03,30,11,54,12.60
2024,03,30,11,55,12.60
2024,03,30,11,56,12.60
2024,03,30,11,57,12.60
2024,03,30,11,58,12.60
2024,03,30,11,59,12.50
2024,03,30,12,00,12.60
2024,03,30,12,01,12.50
2024,03,30,12,02,12.50
2024,03,30,12,03,12.50
2024,03,30,12,04,12.50
2024,03,30,12,05,12.60
2024,03,30,12,06,12.60
2024,03,30,12,07,12.60
2024,03,30,12,08,12.60
2024,03,30,12,09,12.60
2024,03,30,12,10,12.60
2024,03,30,12,11,12.60
2024,03,30,12,12,12.60
2024,03,30,12,13,12.70
2024,03,30,12,14,12.70
2024,03,30,12,15,12.70
2024,03,30,12,16,12.70
2024,03,30,12,17,12.80
2024,03,30,12,18,12.80
2024,03,30,12,19,12.80
2024,03,30,12,20,12.90
2024,03,30,12,21,12.90
2024,03,30,12,22,12.90
2024,03,30,12,23,12.90
2024,03,30,12,24,12.90
2024,03,30,12,25,12.90
2024,03,30,12,26,12.90
2024,03,30,12,27,12.90
2024,03,30,12,28,13.00
2024,03,30,12,29,13.00
2024,03,30,12,30,13.00
2024,03,30,12,31,13.00
2024,03,30,12,32,12.90
2024,03,30,12,33,13.00
2024,03,30,12,34,13.00
2024,03,30,12,35,13.00
2024,03,30,12,36,13.00
2024,03,30,12,37,13.10
2024,03,30,12,38,13.10
2024,03,30,12,39,13.20
2024,03,30,12,40,13.20
2024,03,30,12,41,13.30
2024,03,30,12,42,13.30
2024,03,30,12,43,13.30
2024,03,30,12,44,13.40
2024,03,30,12,45,13.40
2024,03,30,12,46,13.50
2024,03,30,12,47,13.60
2024,03,30,12,48,13.60
2024,03,30,12,49,13.60
2024,03,30,12,50,13.60
2024,03,30,12,51,13.70
2024,03,30,12,52,13.70
2024,03,30,12,53,13.80
2024,03,30,12,54,13.80
2024,03,30,12,55,13.80
2024,03,30,12,56,13.80
2024,03,30,12,57,13.70
2024,03,30,12,58,13.60
2024,03,30,12,59,13.60
2024,03,30,13,00,13.50
2024,03,30,13,01,13.50
2024,03,30,13,02,13.40
2024,03,30,13,03,13.40
2024,03,30,13,04,13.40
2024,03,30,13,05,13.40
2024,03,30,13,06,13.40
2024,03,30,13,07,13.40
2024,03,30,13,08,13.40
2024,03,30,13,09,13.40
2024,03,30,13,10,13.40
2024,03,30,13,11,13.40
2024,03,30,13,12,13.30
2024,03,30,13,13,13.40
2024,03,30,13,14,13.40
2024,03,30,13,15,13.40
2024,03,30,13,16,13.30
2024,03,30,13,17,13.30
2024,03,30,13,18,13.30
2024,03,30,13,19,13.30
2024,03,30,13,20,13.40
2024,03,30,13,21,13.40
2024,03,30,13,22,13.40
2024,03,30,13,23,13.40
2024,03,30,13,24,13.40
2024,03,30,13,25,13.40
2024,03,30,13,26,13.40
2024,03,30,13,27,13.40
2024,03,30,13,28,13.30
2024,03,30,13,29,13.30
2024,03,30,13,30,13.30
2024,03,30,13,31,13.30
2024,03,30,13,32,13.30
2024,03,30,13,33,13.30
2024,03,30,13,34,13.30
2024,03,30,13,35,13.40
2024,03,30,13,36,13.40
2024,03,30,13,37,13.40
2024,03,30,13,38,13.40
2024,03,30,13,39,13.40
2024,03,30,13,40,13.40
2024,03,30,13,41,13.30
2024,03,30,13,42,13.30
2024,03,30,13,43,13.30
2024,03,30,13,44,13.30
2024,03,30,13,45,13.30
2024,03,30,13,46,13.30
2024,03,30,13,47,13.20
2024,03,30,13,48,13.10
2024,03,30,13,49,13.00
2024,03,30,13,50,12.90
2024,03,30,13,51,12.90
2024,03,30,13,52,13.00
2024,03,30,13,53,13.00
2024,03,30,13,54,13.10
2024,03,30,13,55,13.20
2024,03,30,13,56,13.20
2024,03,30,13,57,13.30
2024,03,30,13,58,13.20
2024,03,30,13,59,13.20
2024,03,30,14,00,13.20
2024,03,30,14,01,13.20
2024,03,30,14,02,13.10
2024,03,30,14,03,13.00
2024,03,30,14,04,13.00
2024,03,30,14,05,12.90
2024,03,30,14,06,12.90
2024,03,30,14,07,12.90
2024,03,30,14,08,12.90
2024,03,30,14,09,12.90
2024,03,30,14,10,12.90
2024,03,30,14,11,13.00
2024,03,30,14,12,13.00
2024,03,30,14,13,13.00
2024,03,30,14,14,13.00
2024,03,30,14,15,13.00
2024,03,30,14,16,12.90
2024,03,30,14,17,12.90
2024,03,30,14,18,12.90
2024,03,30,14,19,12.90
2024,03,30,14,20,12.80
2024,03,30,14,21,12.80
2024,03,30,14,22,12.80
2024,03,30,14,23,12.80
2024,03,30,14,24,12.80
2024,03,30,14,25,12.80
2024,03,30,14,26,12.90
2024,03,30,14,27,12.90
2024,03,30,14,28,13.00
2024,03,30,14,29,13.00
2024,03,30,14,30,13.00
2024,03,30,14,31,13.00
2024,03,30,14,32,13.00
2024,03,30,14,33,13.00
2024,03,30,14,34,13.00
2024,03,30,14,35,13.10
2024,03,30,14,36,13.10
2024,03,30,14,37,13.10
2024,03,30,14,38,13.10
2024,03,30,14,39,13.20
2024,03,30,14,40,13.30
2024,03,30,14,41,13.30
2024,03,30,14,42,13.30
2024,03,30,14,43,13.20
2024,03,30,14,44,13.20
2024,03,30,14,45,13.20
2024,03,30,14,46,13.10
2024,03,30,14,47,13.10
2024,03,30,14,48,13.00
2024,03,30,14,49,13.00
2024,03,30,14,50,13.00
2024,03,30,14,51,13.00
2024,03,30,14,52,13.10
2024,03,30,14,53,13.10
2024,03,30,14,54,13.10
2024,03,30,14,55,13.20
2024,03,30,14,56,13.20
2024,03,30,14,57,13.20
2024,03,30,14,58,13.20
2024,03,30,14,59,13.20
2024,03,30,15,00,13.20
2024,03,30,15,01,13.10
2024,03,30,15,02,13.10
2024,03,30,15,03,13.10
2024,03,30,15,04,13.10
2024,03,30,15,05,13.00
2024,03,30,15,06,13.00
2024,03,30,15,07,13.00
2024,03,30,15,08,13.00
2024,03,30,15,09,13.00
2024,03,30,15,10,13.00
2024,03,30,15,11,13.00
2024,03,30,15,12,13.00
2024,03,30,15,13,13.00
2024,03,30,15,14,13.00
2024,03,30,15,15,13.00
2024,03,30,15,16,13.00
2024,03,30,15,17,12.90
2024,03,30,15,18,12.90
2024,03,30,15,19,12.80
2024,03,30,15,20,12.70
2024,03,30,15,21,12.70
2024,03,30,15,22,12.60
2024,03,30,15,23,12.60
2024,03,30,15,24,12.50
2024,03,30,15,25,12.40
2024,03,30,15,26,12.30
2024,03,30,15,27,12.30
2024,03,30,15,28,12.20
2024,03,30,15,29,12.20
2024,03,30,15,30,12.20
2024,03,30,15,31,12.10
2024,03,30,15,32,12.10
2024,03,30,15,33,12.10
2024,03,30,15,34,12.10
2024,03,30,15,35,12.00
2024,03,30,15,36,12.00
2024,03,30,15,37,12.00
2024,03,30,15,38,11.90
2024,03,30,15,39,11.90
2024,03,30,15,40,11.90
2024,03,30,15,41,11.90
2024,03,30,15,42,11.80
2024,03,30,15,43,11.90
2024,03,30,15,44,11.90
2024,03,30,15,45,11.90
2024,03,30,15,46,11.90
2024,03,30,15,47,11.90
2024,03,30,15,48,11.90
2024,03,30,15,49,12.00
2024,03,30,15,50,12.00
2024,03,30,15,51,12.10
2024,03,30,15,52,12.10
2024,03,30,15,53,12.10
2024,03,30,15,54,12.00
2024,03,30,15,55,12.00
2024,03,30,15,56,12.00
2024,03,30,15,57,12.00
2024,03,30,15,58,12.00
2024,03,30,15,59,12.00
2024,03,30,16,00,12.10
2024,03,30,16,01,12.10
2024,03,30,16,02,12.10
2024,03,30,16,03,12.10
2024,03,30,16,04,12.10
2024,03,30,16,05,12.10
2024,03,30,16,06,12.00
2024,03,30,16,07,12.10
2024,03,30,16,08,12.10
2024,03,30,16,09,12.10
2024,03,30,16,10,12.10
2024,03,30,16,11,12.00
2024,03,30,16,12,11.90
2024,03,30,16,13,11.80
2024,03,30,16,14,11.70
2024,03,30,16,15,11.60
2024,03,30,16,16,11.60
2024,03,30,16,17,11.50
2024,03,30,16,18,11.50
2024,03,30,16,19,11.60
2024,03,30,16,20,11.60
2024,03,30,16,21,11.60
2024,03,30,16,22,11.70
2024,03,30,16,23,11.70
2024,03,30,16,24,11.80
2024,03,30,16,25,11.80
2024,03,30,16,26,11.80
2024,03,30,16,27,11.80
2024,03,30,16,28,11.80
2024,03,30,16,29,11.80
2024,03,30,16,30,11.80
2024,03,30,16,31,11.90
2024,03,30,16,32,11.90
2024,03,30,16,33,11.90
2024,03,30,16,34,11.90
2024,03,30,16,35,11.90
2024,03,30,16,36,11.90
2024,03,30,16,37,11.90
2024,03,30,16,38,11.90
2024,03,30,16,39,11.90
2024,03,30,16,40,11.90
2024,03,30,16,41,12.00
2024,03,30,16,42,12.00
2024,03,30,16,43,12.10
2024,03,30,16,44,12.10
2024,03,30,16,45,12.20
2024,03,30,16,46,12.20
2024,03,30,16,47,12.20
2024,03,30,16,48,12.30
2024,03,30,16,49,12.30
2024,03,30,16,50,12.30
2024,03,30,16,51,12.30
2024,03,30,16,52,12.30
2024,03,30,16,53,12.30
2024,03,30,16,54,12.40
2024,03,30,16,55,12.40
2024,03,30,16,56,12.50
2024,03,30,16,57,12.50
2024,03,30,16,58,12.60
2024,03,30,16,59,12.60
2024,03,30,17,00,12.70
2024,03,30,17,01,12.70
2024,03,30,17,02,12.70
2024,03,30,17,03,12.70
2024,03,30,17,04,12.70
2024,03,30,17,05,12.70
2024,03,30,17,06,12.80
2024,03,30,17,07,12.80
2024,03,30,17,08,12.80
2024,03,30,17,09,12.80
2024,03,30,17,10,12.80
2024,03,30,17,11,12.80
2024,03,30,17,12,12.80
2024,03,30,17,13,12.70
2024,03,30,17,14,12.70
2024,03,30,17,15,12.60
2024,03,30,17,16,12.60
2024,03,30,17,17,12.50
2024,03,30,17,18,12.50
2024,03,30,17,19,12.40
2024,03,30,17,20,12.40
2024,03,30,17,21,12.40
2024,03,30,17,22,12.40
2024,03,30,17,23,12.40
2024,03,30,17,24,12.40
2024,03,30,17,25,12.50
2024,03,30,17,26,12.50
2024,03,30,17,27,12.60
2024,03,30,17,28,12.50
2024,03,30,17,29,12.60
2024,03,30,17,30,12.60
2024,03,30,17,31,12.50
2024,03,30,17,32,12.50
2024,03,30,17,33,12.40
2024,03,30,17,34,12.40
2024,03,30,17,35,12.40
2024,03,30,17,36,12.40
2024,03,30,17,37,12.40
2024,03,30,17,38,12.40
2024,03,30,17,39,12.40
2024,03,30,17,40,12.30
2024,03,30,17,41,12.30
2024,03,30,17,42,12.20
2024,03,30,17,43,12.20